Regional Weather Roundup
Issued by NWS Sterling, VA

Home | Current Version | Previous Version | Text Only | Print | Product List | Glossary Off
Versions: 1 2 3 4 5 6 7 8 9 10 11 12 13 14 15 16 17 18 19 20 21 22 23 24 25 26 27 28 29 30 31 32 33 34 35 36 37 38 39 40 41 42 43 44 45 46 47 48 49 50

000
ASUS41 KLWX 161810
RWRLWX

REGIONAL WEATHER ROUNDUP
NATIONAL WEATHER SERVICE BALTIMORE MD/WASHINGTON DC
100 PM EST MON JAN 16 2017

Note: "FAIR" indicates few or no clouds below 12,000 feet
with no significant weather and/or obstructions to visibility.
 TC=TEMPERATURE CELSIUS

 * =Non NWS site. Station does not report precipitation (e.g. rain,
    snow, etc.), thunder, or fog.

DCZ001-MDZ009-015-VAZ040>042-051-053>054-161900-
WASHINGTON METRO

CITY           SKY/WX    TMP DP  RH WIND       PRES   REMARKS
WASHINGTON NAT CLOUDY    43  31  62 S8        30.42F
DULLES         CLOUDY    43  31  62 S6        30.39F
ANDREWS AFB    CLOUDY    42  29  59 S3        30.40F
FT BELVOIR     CLOUDY    44  32  62 S6        30.41F
QUANTICO       CLOUDY    42  36  79 S9        30.43F
COLLEGE PARK*  CLOUDY    41  28  60 S3        30.40F
LEESBURG*      CLOUDY    45  36  70 MISG      30.39F
MANASSAS*      CLOUDY   N/A N/A N/A S10       30.41F
GAITHERSBURG*  CLOUDY    41  27  56 SE6       30.42F

$$

MDZ006>007-011-014-161900-
BALTIMORE METRO

CITY           SKY/WX    TMP DP  RH WIND       PRES   REMARKS
BWI AIRPORT    CLOUDY    40  28  62 CALM      30.41F
MD SCIENCE CTR   N/A     39  26  59 MISG      30.43F
MARTIN STATE   CLOUDY    37  30  75 SE3       30.45F
ANNAPOLIS      CLOUDY    38  30  73 SE8       30.42F
FORT MEADE*    CLOUDY    41  28  60 S5        30.43F

$$

MDZ012-015-019>023-161900-
MARYLAND EASTERN SHORE

CITY           SKY/WX    TMP DP  RH WIND       PRES   REMARKS
OCEAN CITY     CLOUDY    41  27  57 E6        30.44F
SALISBURY      CLOUDY    42  26  53 CALM      30.43F
BAY BRIDGE AP* CLOUDY    39  28  65 CALM      30.43F
CAMBRIDGE*     CLOUDY    41  28  60 CALM      30.42F
EASTON*        CLOUDY    41  25  52 CALM      30.47F

$$

MDZ017>025-161900-
SOUTHERN MARYLAND

CITY           SKY/WX    TMP DP  RH WIND       PRES   REMARKS
PATUXENT RIVER CLOUDY    41  33  73 E5        30.43F
ST INIGOES     NOT AVBL
LEONARDTOWN*   CLOUDY    43  28  56 CALM      30.43F

$$

MDZ003>005-161900-
NORTH CENTRAL MARYLAND

CITY           SKY/WX    TMP DP  RH WIND       PRES   REMARKS
FREDERICK*     CLOUDY    39  30  70 CALM      30.42F
HAGERSTOWN APT CLOUDY    37  26  64 W5        30.36F
WESTMINSTER*   CLOUDY    37  27  65 S5        30.37F

$$

MDZ501>502-161900-
WESTERN MARYLAND

CITY           SKY/WX    TMP DP  RH WIND       PRES   REMARKS
OAKLAND*         N/A     43  41  93 S8        30.24F
CUMBERLAND*    CLOUDY    39  28  65 S3        30.37F

$$

VAZ025>031-161900-
SHENANDOAH VALLEY

CITY           SKY/WX    TMP DP  RH WIND       PRES   REMARKS
WINCHESTER*    CLOUDY    41  32  70 S5        30.34F
FRONT ROYAL*   NOT AVBL
LURAY*         CLOUDY    45  39  81 CALM      30.33F
NEW MARKET*    CLOUDY    44  36  73 CALM      30.33F
STAUNTON*      CLOUDY    42  39  89 S7        30.35F
WAYNESBORO*    CLOUDY    40  39  95 S5        30.34F

$$

WVZ021-048>050-054>055-161900-
EASTERN WEST VIRGINIA PANHANDLE

CITY           SKY/WX    TMP DP  RH WIND       PRES   REMARKS
MARTINSBURG    CLOUDY    40  28  62 CALM      30.36F
PETERSBURG*    CLOUDY    44  36  74 CALM      30.32F

$$

VAZ036>039-050-161900-
CENTRAL FOOTHILLS

CITY           SKY/WX    TMP DP  RH WIND       PRES   REMARKS
CHARLOTTESVILL CLOUDY    43  40  89 S7        30.38F
CULPEPER*      CLOUDY    43  40  87 S8        30.41F
ORANGE*          N/A     43  43 100 CALM      30.41F
GORDONSVILLE*  CLOUDY    42  41  97 S5        30.38F
WARRENTON*     CLOUDY    44  36  73 S6        30.39F

$$

VAZ055>057-161900-
NORTH AND CENTRAL PIEDMONT

CITY           SKY/WX    TMP DP  RH WIND       PRES   REMARKS
FREDERICKSBRG* CLOUDY    44  37  78 SE5       30.40F
STAFFORD*      CLOUDY    42  35  76 CALM      30.45F

$$

NCZ024-NYZ072-PAZ021-071-VAZ022-071-161900-
OTHER REGIONAL OBSERVATIONS

CITY           SKY/WX    TMP DP  RH WIND       PRES   REMARKS
NEW YORK CITY  SUNNY     40  21  46 W7        30.41F
PHILADELPHIA   PTSUNNY   40  21  46 VRB7      30.43F
PITTSBURGH     CLOUDY    37  28  70 CALM      30.27F
ROANOKE        CLOUDY    42  38  85 CALM      30.39F
RICHMOND       CLOUDY    42  36  79 VRB3      30.42F
RALEIGH        CLOUDY    50  24  36 S5        30.41F

$$

ANZ530>537-161900-
MARINE OBSERVATIONS

STATION/POSITION TIME  TEMP    WIND        PRES
                       AIR SEA DIR/SP/G
                 (UTC) (F)     (DEG/KT/KT) (MB)
THOMAS PT LIGHT  1800   37 38  140/  5/  5   N/A
BALT KEY BRIDGE  1748   35      90/  6/  6 1030.5F
COVE POINT       1748   37     180/  5/  6 1031.3F
LEWISETTA        1748   39 42  100/  6/  7 1030.2F
SOLOMONS ISLAND  1748      41   70/  3/  4   N/A
PINEY POINT      1748          140/  5/  5   N/A

$$




USA.gov is the U.S. government's official web portal to all federal, state and local government web resources and services.